ARIANE 40+ R/B (23561 NORAD) Tracking and Keplerian Element Data

This shows tracking and keplerian element data for the satellite.

Feedback or suggestion? Click here.




ElementValue
Catalog23561
NameARIANE 40+ R/B
Epoch Orbit40156
Epoch Day15.92000568
Epoch Year2022
RAAN72.4628
Inclination98.6469
Eccentricity0.0006536
Argument of Perigee348.8174
Mean Anonmoly184.6132
Mean Motion14.38077094
Decay Rate1.18E-06
L11 23561U 95021B 22015.92000568 .00000118 00000+0 53706-4 0 9998
L22 23561 98.6469 72.4628 0006536 348.8174 184.6132 14.38077094401569

Live tracking and technical data element details for ARIANE 40+ R/B (NORAD 23561). ARIANE 40+ R/B can be tracked NOW for your location showing map with azimuth and elevation plus other details from your city location.

Track the satellite on the map from your city or location and see movement details for azimuth, elevation, latitude, longitude, range, height, and movement on the map or in text.







IsCatalogInMostPopularTable: catalog: 23561, numindb: 498
Update: records affected: 1



GetName: 23561 ARIANE 40+ R/B

Hit Count: updated at: Mon, 17 Jan 2022 00:53:03 GMT